www.pogodaiklimat.ru

Погода и климат >> Архив погоды >> Австралия >> Западная Австралия >> Марди


ПОГОДА в Марди

  • Прогноз погоды в Марди
  • Монитор погоды в Марди

АРХИВ ПОГОДЫ в Марди

Время (UTC), дата Ветер
(напр.,м/с)
 
Видим.   Явления Облачность Т
(С)
Тd
(С)
f
(%)
Тe
(С)
Тes
(С)
Комфортность P
(гПа)
Po
(гПа)
Тmin
(С)
Tmax
(С)
R
(мм)
R24
(мм)
S
(см)
10 15.01 СЗ 6 н/о н/о +32.7 +23.6 59 +44 +44 опасность
перегрева
1003.6 1002.3
12 15.01 З 2 н/о н/о +30.5 +22.1 61 +39 +39 очень
душно
1005.4 1004.1
13 15.01 З 2 н/о н/о +30.4 +22.8 64 +40 +40 очень
душно
1005.5 1004.2 +41.0
15 15.01 В 2 н/о н/о +30.8 +22.1 60 +40 +40 очень
душно
1006.8 1005.5
16 15.01 С 2 н/о н/о +29.7 +22.2 64 +39 +39 очень
душно
1005.5 1004.2
18 15.01 С 2 н/о н/о +29.7 +26.1 81 +45 +45 опасность
перегрева
1004.7 1003.4
19 15.01 З 3 н/о н/о +29.1 +28.2 95 +49 +49 опасность
перегрева
1004.7 1003.4
21 15.01 штиль 0 н/о н/о +28.3 +27.8 97 +46 +46 опасность
перегрева
1005.1 1003.8
22 15.01 штиль 0 н/о н/о +27.6 +27.6 100 +45 +45 опасность
перегрева
1005.8 1004.5
00 16.01 СЗ 2 н/о н/о +31.3 +23.4 63 +42 +42 опасность
перегрева
1006.7 1005.4
01 16.01 СЗ 2 н/о н/о +33.1 +21.9 52 +42 +42 опасность
перегрева
1006.5 1005.2 +27.6
03 16.01 СЗ 3 н/о н/о +36.2 +20.8 41 +43 +43 опасность
перегрева
1005.7 1004.4
04 16.01 С 4 н/о н/о +36.2 +21.2 42 +44 +44 опасность
перегрева
1004.9 1003.6
06 16.01 СЗ 5 н/о н/о +38.1 +18.5 32 +42 +42 опасность
перегрева
1003.8 1002.5
07 16.01 СЗ 6 н/о н/о +37.9 +18.8 33 +42 +42 опасность
перегрева
1002.9 1001.6
09 16.01 СЗ 6 н/о н/о +36.3 +18.8 36 +41 +41 опасность
перегрева
1002.5 1001.2
10 16.01 З 6 н/о н/о +33.8 +21.9 50 +42 +42 опасность
перегрева
1002.8 1001.5
12 16.01 С 3 н/о н/о +30.7 +23.1 64 +41 +41 опасность
перегрева
1005.3 1004.0
13 16.01 С 2 н/о н/о +30.0 +23.9 70 +41 +41 опасность
перегрева
1006.1 1004.8 +39.1
15 16.01 С 2 н/о н/о +29.4 +24.0 73 +41 +41 опасность
перегрева
1006.7 1005.4
16 16.01 С 1 н/о н/о +29.1 +24.0 74 +40 +40 очень
душно
1006.4 1005.1
18 16.01 СВ 3 н/о н/о +29.3 +21.3 62 +37 +37 очень
душно
1006.4 1005.1
19 16.01 СВ 5 н/о н/о +29.1 +22.1 66 +38 +38 очень
душно
1006.4 1005.1
21 16.01 В 4 н/о н/о +30.5 +19.2 51 +36 +36 очень
душно
1007.1 1005.8
22 16.01 С 2 н/о н/о +29.8 +19.5 54 +36 +36 очень
душно
1006.5 1005.2
00 17.01 СВ 4 н/о н/о +32.4 +19.3 46 +38 +38 очень
душно
1007.3 1006.0
01 17.01 С 5 н/о н/о +34.0 +20.4 45 +41 +41 опасность
перегрева
1007.6 1006.3 +28.9
03 17.01 С 4 н/о н/о +35.5 +21.0 43 +43 +43 опасность
перегрева
1006.4 1005.1
04 17.01 СЗ 7 н/о н/о +36.1 +20.4 40 +42 +42 опасность
перегрева
1006.1 1004.8
06 17.01 СЗ 6 н/о н/о +35.3 +20.8 43 +42 +42 опасность
перегрева
1005.3 1004.0
07 17.01 СЗ 6 н/о н/о +35.3 +22.3 47 +44 +44 опасность
перегрева
1005.0 1003.7
09 17.01 СЗ 6 н/о н/о +33.3 +23.3 56 +44 +44 опасность
перегрева
1004.9 1003.6
10 17.01 СЗ 4 н/о н/о +31.7 +23.8 63 +43 +43 опасность
перегрева
1005.3 1004.0
12 17.01 З 3 н/о н/о +30.1 +24.7 73 +43 +43 опасность
перегрева
1007.8 1006.5
13 17.01 З 3 н/о н/о +30.2 +24.1 70 +42 +42 опасность
перегрева
1008.3 1007.0 +38.4
15 17.01 СЗ 1 н/о н/о +30.1 +23.0 66 +40 +40 очень
душно
1008.1 1006.8
16 17.01 штиль 0 н/о н/о +29.7 +23.2 68 +40 +40 очень
душно
1007.8 1006.5
18 17.01 З 2 н/о н/о +29.6 +23.5 70 +40 +40 очень
душно
1006.7 1005.4
19 17.01 З 3 н/о н/о +29.7 +23.6 70 +41 +41 опасность
перегрева
1006.4 1005.1
21 17.01 ЮЗ 1 н/о н/о +29.2 +23.2 70 +39 +39 очень
душно
1006.1 1004.8
22 17.01 ЮЗ 1 н/о н/о +28.9 +23.3 72 +39 +39 очень
душно
1007.1 1005.8
00 18.01 СЗ 1 н/о н/о +32.6 +21.1 51 +40 +40 очень
душно
1008.1 1006.8
01 18.01 З 1 н/о н/о +34.3 +20.3 44 +41 +41 опасность
перегрева
1008.2 1006.9 +28.9
03 18.01 СЗ 4 н/о н/о +36.0 +21.8 44 +44 +44 опасность
перегрева
1007.4 1006.1
04 18.01 С 6 н/о н/о +35.3 +21.2 44 +43 +43 опасность
перегрева
1007.2 1005.9
06 18.01 СЗ 6 н/о н/о +35.8 +20.5 41 +42 +42 опасность
перегрева
1006.2 1004.9
07 18.01 С 6 н/о н/о +35.0 +22.0 47 +44 +44 опасность
перегрева
1006.3 1005.0
09 18.01 СЗ 6 н/о н/о +34.4 +20.7 45 +41 +41 опасность
перегрева
1005.1 1003.8
10 18.01 СЗ 6 н/о н/о +32.3 +24.6 64 +45 +45 опасность
перегрева
1005.3 1004.0
12 18.01 З 4 н/о н/о +30.3 +25.1 74 +44 +44 опасность
перегрева
1007.4 1006.1
13 18.01 З 5 н/о н/о +29.7 +26.7 84 +46 +46 опасность
перегрева
1007.9 1006.6 +37.5
15 18.01 ЮЗ 4 н/о н/о +29.0 +26.2 85 +44 +44 опасность
перегрева
1008.3 1007.0
16 18.01 З 2 н/о н/о +28.8 +25.6 83 +43 +43 опасность
перегрева
1007.9 1006.6
18 18.01 штиль 0 н/о н/о +28.1 +24.1 79 +39 +39 очень
душно
1007.0 1005.7
19 18.01 штиль 0 н/о н/о +28.0 +24.4 81 +39 +39 очень
душно
1006.5 1005.2
21 18.01 ЮЗ 1 н/о н/о +26.8 +23.5 82 +36 +36 очень
душно
1006.7 1005.4
22 18.01 ЮЗ 1 н/о н/о +26.7 +23.6 83 +36 +36 очень
душно
1007.0 1005.7
00 19.01 штиль 0 н/о н/о +30.9 +24.1 67 +43 +43 опасность
перегрева
1008.2 1006.9
01 19.01 С 1 н/о н/о +33.7 +21.2 48 +41 +41 опасность
перегрева
1008.2 1006.9 +26.7
03 19.01 С 4 н/о н/о +36.0 +20.7 41 +43 +43 опасность
перегрева
1008.0 1006.7
04 19.01 СЗ 4 н/о н/о +37.1 +18.1 33 +41 +41 опасность
перегрева
1007.4 1006.1
06 19.01 С 4 н/о н/о +37.6 +17.1 30 +40 +40 очень
душно
1006.7 1005.4
07 19.01 СЗ 6 н/о н/о +37.1 +17.1 31 +40 +40 очень
душно
1006.2 1004.9
09 19.01 СЗ 6 н/о н/о +34.6 +19.8 42 +40 +40 очень
душно
1006.1 1004.8
10 19.01 СЗ 6 н/о н/о +33.2 +21.7 51 +41 +41 опасность
перегрева
1006.0 1004.7
12 19.01 С 2 н/о н/о +30.7 +23.9 67 +42 +42 опасность
перегрева
1007.5 1006.2
13 19.01 С 2 н/о н/о +30.3 +23.7 68 +41 +41 опасность
перегрева
1007.9 1006.6 +39.2
15 19.01 С 2 н/о н/о +30.9 +20.5 54 +38 +38 очень
душно
1010.0 1008.7
16 19.01 З 7 н/о н/о +31.0 +21.8 58 +39 +39 очень
душно
1007.3 1006.0
18 19.01 ЮЗ 2 н/о н/о +29.7 +23.2 68 +40 +40 очень
душно
1008.0 1006.7
19 19.01 ЮЗ 1 н/о н/о +29.6 +22.3 65 +39 +39 очень
душно
1008.0 1006.7
21 19.01 Ю 1 н/о н/о +29.3 +20.5 59 +36 +36 очень
душно
1007.6 1006.3
22 19.01 ЮЗ 2 н/о н/о +28.6 +21.6 66 +37 +37 очень
душно
1008.0 1006.7
00 20.01 штиль 0 н/о н/о +31.7 +23.0 60 +42 +42 опасность
перегрева
1009.4 1008.1
01 20.01 СВ 1 н/о н/о +33.8 +22.2 51 +43 +43 опасность
перегрева
1009.6 1008.3 +28.5
03 20.01 СЗ 3 н/о н/о +36.3 +20.9 41 +43 +43 опасность
перегрева
1008.9 1007.6
04 20.01 СЗ 5 н/о н/о +38.7 +19.0 32 +43 +43 опасность
перегрева
1007.9 1006.6
06 20.01 СЗ 7 н/о н/о +37.6 +17.1 30 +40 +40 очень
душно
1006.5 1005.2
07 20.01 СЗ 7 н/о н/о +38.0 +18.4 32 +42 +42 опасность
перегрева
1005.7 1004.4
09 20.01 СЗ 6 н/о н/о +34.9 +20.8 44 +42 +42 опасность
перегрева
1005.4 1004.1
10 20.01 З 6 н/о н/о +32.9 +23.0 56 +43 +43 опасность
перегрева
1005.5 1004.2
12 20.01 З 5 н/о н/о +31.0 +24.4 68 +43 +43 опасность
перегрева
1007.1 1005.8
13 20.01 З 4 н/о н/о +30.8 +24.9 71 +44 +44 опасность
перегрева
1007.2 1005.9 +40.0
15 20.01 З 3 н/о н/о +30.8 +24.2 68 +43 +43 опасность
перегрева
1008.0 1006.7
16 20.01 ЮЗ 2 н/о н/о +30.9 +23.3 64 +41 +41 опасность
перегрева
1009.0 1007.7
18 20.01 З 3 н/о н/о +30.3 +22.2 62 +39 +39 очень
душно
1006.8 1005.5
19 20.01 З 2 н/о н/о +30.4 +22.8 64 +40 +40 очень
душно
1006.7 1005.4
21 20.01 Ю 2 н/о н/о +29.5 +20.4 58 +36 +36 очень
душно
1006.8 1005.5
22 20.01 З 3 н/о н/о +29.0 +19.3 56 +35 +35 очень
душно
1006.6 1005.3
00 21.01 СЗ 3 н/о н/о +33.2 +17.4 39 +37 +37 очень
душно
1007.6 1006.3
01 21.01 З 2 н/о н/о +34.7 +18.3 38 +39 +39 очень
душно
1007.5 1006.2 +29.0
03 21.01 СЗ 4 н/о н/о +38.1 +19.5 34 +43 +43 опасность
перегрева
1006.9 1005.6
04 21.01 З 6 н/о н/о +36.5 +20.3 39 +43 +43 опасность
перегрева
1006.4 1005.1
06 21.01 З 8 н/о н/о +37.3 +19.7 36 +43 +43 опасность
перегрева
1004.5 1003.2
07 21.01 З 8 н/о н/о +36.7 +19.6 37 +42 +42 опасность
перегрева
1003.8 1002.5
09 21.01 З 8 н/о н/о +34.6 +23.3 52 +45 +45 опасность
перегрева
1003.4 1002.1
10 21.01 З 8 н/о н/о +32.9 +23.8 59 +44 +44 опасность
перегрева
1003.4 1002.1
12 21.01 ЮЗ 2 н/о н/о +32.9 +22.7 55 +43 +43 опасность
перегрева
1006.1 1004.8
13 21.01 З 4 н/о н/о +32.4 +21.3 52 +40 +40 очень
душно
1005.4 1004.1 +39.3
15 21.01 З 4 н/о н/о +31.6 +25.0 68 +45 +45 опасность
перегрева
1004.7 1003.4
16 21.01 З 5 н/о н/о +30.9 +25.3 72 +45 +45 опасность
перегрева
1004.4 1003.1
18 21.01 З 3 н/о н/о +29.7 +27.1 86 +47 +47 опасность
перегрева
1004.3 1003.0
19 21.01 З 3 н/о н/о +29.4 +27.0 87 +46 +46 опасность
перегрева
1003.5 1002.2
21 21.01 ЮЗ 3 н/о н/о +28.7 +22.2 68 +37 +37 очень
душно
1003.3 1002.0
22 21.01 ЮЗ 2 н/о н/о +28.0 +19.8 61 +34 +34 очень
душно
1003.7 1002.4
00 22.01 З 3 н/о н/о +29.4 +20.8 60 +37 +37 очень
душно
1004.4 1003.1
01 22.01 З 3 н/о н/о +32.0 +20.3 50 +39 +39 очень
душно
1004.5 1003.2 +28.0
03 22.01 З 6 н/о н/о +33.5 +22.6 53 +43 +43 опасность
перегрева
1004.2 1002.9
04 22.01 СЗ 8 н/о н/о +33.4 +24.3 59 +46 +46 опасность
перегрева
1004.0 1002.7
06 22.01 З 8 н/о н/о +33.5 +23.2 55 +44 +44 опасность
перегрева
1002.9 1001.6
07 22.01 З 8 н/о н/о +32.5 +22.3 55 +42 +42 опасность
перегрева
1002.2 1000.9
09 22.01 З 7 н/о н/о +31.6 +23.7 63 +43 +43 опасность
перегрева
1001.5 1000.2

 

Местоположение метеостанции Марди (Западная Австралия, Австралия): широта -21.18 долгота 115.97 высота над уровнем моря 12 м.

В архиве по умолчанию представлена погода в Марди за последнюю неделю. Архивные данные за месяц целиком и за предыдущие месяцы, начиная с января 2011 года, Вы можете получить, выбрав интересующий диапазон дат из раскрывающегося списка и нажав кнопку "Ввод!".


*Определитесь, кто Вы:
робот инопланетянин человек

Внимание! Время в таблицах - всемирное. Для получения местного времени необходимо прибавить поправку, которая равна 8 ч.

Смотрите также архив погоды в соседних городах и на ближайших метеорологических станциях:

Погода в Барроу-Айленд (Западная Австралия, Австралия) (68 км)
Погода на Острове Варанас (Западная Австралия, Австралия) (72 км)
Погода в Каррате (Западная Австралия, Австралия) (98 км)
Погода на Острове Тевенард (Западная Австралия, Австралия) (103 км)
Погода в Онслоу (Западная Австралия, Австралия) (104 км)
Погода в Роборне (Западная Австралия, Австралия) (132 км)
Погода в Лермонте (Западная Австралия, Австралия) (228 км)
Погода в Параберду (Западная Австралия, Австралия) (287 км)
Погода в Порт-Хедленде (Западная Австралия, Австралия) (291 км)
Погода в Марбл-баре (Западная Австралия, Австралия) (392 км)

Пояснения к столбцам:

Ветер - указаны скорость ветра в м/с - средняя за 10 мин, порывы в срок и между сроками (в фигурных скобках) и направление, откуда дует ветер: С - северный, СВ - северо-восточный, В - восточный, ЮВ - юго-восточный, Ю - южный, ЮЗ - юго-западный, З - западный, СЗ - северо-западный.
Видимость - горизонтальная дальность видимости в метрах или километрах. При видимости от 1 до 10 км при отсутствии осадков обычно наблюдается дымка, при ухудшении видимости до 1 км и менее - туман. В сухую погоду видимость может ухудшаться дымом, пылью или мглою.
Явления - указаны атмосферные явления, наблюдавшиеся в срок или в последний час перед сроком; фигурными скобками обозначены явления, наблюдавшиеся между сроками (за 1-3 часа до срока); квадратными скобками обозначены град или гололедные отложения с указанием их диаметра в мм.
Облачность - указаны через наклонную черту общая и нижняя облачность в баллах и высота нижней границы облаков в метрах; квадратными скобками обозначены формы облаков: Ci - перистые, Cs - перисто-слоистые, Cc - перисто-кучевые, Ac - высококучевые, As - высокослоистые, Sc - слоисто-кучевые, Ns - слоисто-дождевые, Cu - кучевые, Cb - кучево-дождевые. Подробнее классификацию облаков см. в Атласе облаков (PDF).
T - Температура воздуха - температура, измеренная на высоте 2 м над землей.
Td - Температура точки росы - температура, при понижении до которой содержащийся в воздухе водяной пар достигнет насыщения.
f - Относительная влажность воздуха - влажноcть воздуха, измеренная на высоте 2 м над землей.
Te - Эффективная температура - температура, которую ощущает одетый по сезону человек в тени. Характеристика душности погоды. При расчете учитывается влияние влажности воздуха и скорости ветра на теплоощущения человека.
Tes - Эффективная температура на солнце - температура, которую ощущает человек, с поправкой на солнечный нагрев. Характеристика знойности погоды. Зависит от высоты солнца над горизонтом, облачности и скорости ветра. Ночью, в пасмурную погоду, а также при ветре 12 м/с и более поправка равна нулю.
P - Атмосферное давление - приведенное к уровню моря атмосферное давление.
Po - Атмосферное давление - измеренное на уровне метеостанции атмосферное давление.
Tmin - Минимальная температура - минимум температуры воздуха на высоте 2 м над землей.
Tmax - Максимальная температура - максимум температуры воздуха на высоте 2 м над землей.
R - Количество осадков - Количество выпавших осадков за период времени, мм. При наведении курсора мыши на число - период времени, за который выпало указанное количество осадков.
R24 - Количество осадков - Количество выпавших осадков за 24 часа, мм.
S - Снежный покров - Высота снежного покрова, см. При наведении курсора мыши на число - состояние снежного покрова и степень покрытия местности в баллах.